This demonstration page uses our WeatherBlox Daily Observations layout. Learn more.

Left ArrowRight Arrow

Hourly Observations for August 17, 2022

Temp ( °F °C ) Dew Point ( °F °C ) Humidity (%) Winds ( mph kmh ) Pressure ( in mb ) Visibility ( mi km ) Precip ( " mm )
12:53 am 00:53 Mostly Cloudy 65 18.3 61 16.1 87 87 N 5 7 30.03 1017 10 16 0.00 0.00
1:53 am 01:53 Cloudy 67 19.4 62 16.7 84 84 NNW 3 6 30.03 1017 10 16 0.00 0.00
2:53 am 02:53 Clear 65 18.3 61 16.1 87 87 NNW 3 6 30.02 1017 10 16 0.00 0.00
3:53 am 03:53 Clear 64 17.8 60 15.6 87 87 Calm 30.02 1017 10 16 0.00 0.00
4:53 am 04:53 Clear 62 16.7 60 15.6 93 93 Calm 30.02 1017 10 16 0.00 0.00
5:53 am 05:53 Clear 61 16.1 59 15 93 93 W 3 6 30.02 1017 10 16 0.00 0.00
6:53 am 06:53 Sunny 60 15.6 58 14.4 93 93 Calm 30.04 1017 9 14 0.00 0.00
7:53 am 07:53 Sunny 63 17.2 60 15.6 90 90 Calm 30.06 1018 10 16 0.00 0.00
8:53 am 08:53 Sunny 67 19.4 61 16.1 81 81 VRB 3 6 30.08 1019 10 16 0.00 0.00
9:53 am 09:53 Sunny 71 21.7 62 16.7 73 73 NNE 6 9 30.07 1018 10 16 0.00 0.00
10:53 am 10:53 Sunny 74 23.3 63 17.2 69 69 NNE 8 13 30.07 1018 10 16 0.00 0.00
11:53 am 11:53 Partly Cloudy 76 24.4 63 17.2 64 64 NNE 3 6 30.07 1018 10 16 0.00 0.00
12:53 pm 12:53 Mostly Cloudy 77 25 63 17.2 62 62 N 5 7 30.06 1018 10 16 0.00 0.00
1:53 pm 13:53 Mostly Cloudy 81 27.2 62 16.7 53 53 ENE 7 11 30.05 1018 10 16 0.00 0.00
2:53 pm 14:53 Partly Cloudy 80 26.7 59 15 49 49 undefined N/A 30.05 1018 10 16 0.00 0.00
3:53 pm 15:53 Mostly Sunny 82 27.8 59 15 46 46 E 8 13 30.02 1017 10 16 0.00 0.00
4:53 pm 16:53 Partly Cloudy 82 27.8 59 15 46 46 N 9 15 30.01 1016 10 16 0.00 0.00
5:53 pm 17:53 Mostly Cloudy 82 27.8 61 16.1 49 49 N 7 11 30.00 1016 10 16 0.00 0.00
6:53 pm 18:53 Sunny 79 26.1 61 16.1 54 54 NNW 7 11 30.00 1016 10 16 0.00 0.00
7:53 pm 19:53 Partly Cloudy 76 24.4 60 15.6 58 58 N 6 9 30.00 1016 10 16 0.00 0.00
8:53 pm 20:53 Partly Cloudy 73 22.8 59 15 61 61 NNE 5 7 30.01 1016 10 16 0.00 0.00
9:53 pm 21:53 Mostly Clear 69 20.6 60 15.6 73 73 NNW 3 6 30.03 1017 10 16 0.00 0.00
10:53 pm 22:53 Clear 69 20.6 59 15 70 70 NNE 3 6 30.03 1017 10 16 0.00 0.00
11:53 pm 23:53 Clear 66 18.9 60 15.6 81 81 N 5 7 30.04 1017 10 16 0.00 0.00

Powered by AerisWeather